Flag for Brazil Weather past 2 weeks in Itabuna, Bahia, Brazil

Now
81 °F

Scattered clouds.


Feels Like: 81 °F
Forecast: 57 / 82 °F
Wind: 14 mph from East

Location: Salvador Aeroporto

Current Time: Aug 3, 2015 at 1:14:38 PM

Latest Report: Aug 3, 2015 at 12:00 PM


Visibility: N/A

Pressure: 30.12 "Hg

Humidity: 51%

Dew point: 61 °F

Location of ItabunaLocation

Historic Weather in Itabuna — Graph

°F

Itabuna temperature yesterday

Maximum temperature yesterday: 81 °F (at 10:00 AM)
Minimum temperature yesterday: 70 °F (at 5:00 PM)
Average temperature yesterday: 75 °F

Past Weeks' High & Low Weather Summary

 TemperatureHumidityPressure
High86 °F (Jul 31, 12:00 PM)100% (Aug 1, 10:00 AM)30.15 "Hg (Aug 1, 10:00 AM)
Low41 °F (Aug 1, 10:00 AM)49% (Jul 31, 12:00 PM)30.01 "Hg (Jul 25, 3:00 PM)
Average76 °F72%30.08 "Hg
* Reported Jul 19 12:00 Noon — Aug 3 12:00 Noon, Itabuna, Weather by CustomWeather, © 2015

Note: Actual official high and low records may vary slightly from our data, if they occured in-between our weather recording intervals... More about our weather records

Advertising

Itabuna weather history for previous 24 hours

 ConditionsComfort  
Time TempWeatherWind HumidityBarometerVisibility
12:00 PM
Mon, Aug 3
81 °FScattered clouds.14 mph51%30.12 "HgN/A
11:00 AM81 °FScattered clouds.14 mph51%30.12 "HgN/A
10:00 AM79 °FScattered clouds.13 mph54%30.12 "HgN/A
9:00 AM79 °FBroken clouds.14 mph58%30.12 "HgN/A
8:00 AM75 °FBroken clouds.15 mph61%30.09 "HgN/A
7:00 AM73 °FBroken clouds.13 mph74%30.09 "HgN/A
6:00 AM75 °FBroken clouds.8 mph69%30.07 "HgN/A
5:00 AM75 °FPassing clouds.7 mph69%30.07 "HgN/A
4:00 AM75 °FPassing clouds.6 mph69%30.07 "HgN/A
3:00 AM73 °FPassing clouds.6 mph74%30.07 "HgN/A
2:00 AM73 °FPassing clouds.8 mph74%30.07 "HgN/A
1:00 AM73 °FPassing clouds.10 mph74%30.09 "HgN/A
12:00 AM73 °FPassing clouds.10 mph74%30.09 "HgN/A
11:00 PM
Sun, Aug 2
73 °FPassing clouds.5 mph78%30.09 "Hg5 mi
10:00 PM73 °FPartly cloudy.9 mph69%30.09 "HgN/A
9:00 PM70 °FPassing clouds.1 mph88%30.09 "HgN/A
8:00 PM70 °FPassing clouds.2 mph88%30.07 "HgN/A
7:00 PM70 °FPassing clouds.2 mph88%30.07 "HgN/A
6:00 PM72 °FPartly cloudy.5 mph83%30.04 "HgN/A
5:00 PM70 °FScattered showers. Broken clouds.5 mph88%N/A5 mi
4:00 PM72 °FLight rain. Fog.12 mph83%30.07 "Hg3 mi
3:00 PM79 °FScattered clouds.12 mph54%30.04 "HgN/A
2:00 PM77 °FBroken clouds.13 mph61%30.07 "HgN/A
1:00 PM77 °FBroken clouds.10 mph57%30.09 "HgN/A
Weather by CustomWeather, © 2015

See weather overviewHow to use our weather pages